QPF
0.00 0.00 0.00 0.00 0.00 0.00 0.00 0.00 0.00 0.00 0.00 0.00 0.00 0.00 0.00 0.00 0.00 0.00 0.00 0.00 0.00 0.00 0.00 0.00 0.00 0.00 0.00 0.00 0.01 0.01 0.02 0.03 0.05 0.05 0.06 0.08 0.09 0.08 0.07 0.08 0.07 0.07 0.06 0.06
0.00 0.00 0.00 0.00 0.00 0.00 0.00 0.00 0.00 0.00 0.00 0.00 0.00 0.00 0.00 0.00 0.00 0.00 0.00 0.00 0.00 0.00 0.00 0.00 0.00 0.00 0.00 0.01 0.01 0.01 0.01 0.02 0.03 0.04 0.05 0.06 0.08 0.11 0.09 0.07 0.07 0.05 0.05 0.06
0.00 0.00 0.00 0.00 0.00 0.00 0.00 0.00 0.00 0.00 0.00 0.00 0.00 0.00 0.00 0.00 0.00 0.00 0.00 0.00 0.00 0.00 0.00 0.00 0.00 0.00 0.00 0.00 0.01 0.01 0.01 0.02 0.02 0.02 0.02 0.03 0.04 0.06 0.08 0.06 0.06 0.04 0.05 0.07
0.00 0.00 0.00 0.00 0.00 0.00 0.00 0.00 0.00 0.00 0.00 0.00 0.00 0.00 0.00 0.00 0.00 0.00 0.00 0.00 0.00 0.00 0.00 0.00 0.00 0.00 0.01 0.01 0.01 0.01 0.01 0.01 0.02 0.02 0.03 0.03 0.03 0.04 0.04 0.05 0.06 0.06 0.06 0.08
0.00 0.00 0.00 0.00 0.00 0.00 0.00 0.00 0.00 0.00 0.00 0.00 0.00 0.00 0.00 0.00 0.00 0.00 0.00 0.00 0.00 0.00 0.00 0.00 0.01 0.01 0.03 0.01 0.01 0.01 0.01 0.01 0.01 0.02 0.02 0.03 0.02 0.03 0.03 0.04 0.04 0.05 0.04 0.04
0.00 0.00 0.00 0.00 0.00 0.00 0.00 0.00 0.00 0.00 0.00 0.00 0.00 0.00 0.00 0.00 0.00 0.00 0.00 0.00 0.00 0.00 0.00 0.00 0.00 0.00 0.01 0.00 0.00 0.01 0.01 0.01 0.01 0.02 0.02 0.02 0.02 0.02 0.03 0.03 0.03 0.03 0.03 0.02
0.00 0.00 0.00 0.00 0.00 0.00 0.00 0.00 0.00 0.00 0.00 0.00 0.00 0.00 0.00 0.00 0.00 0.00 0.00 0.00 0.00 0.00 0.00 0.00 0.00 0.00 0.00 0.00 0.00 0.00 0.00 0.01 0.02 0.02 0.02 0.02 0.02 0.02 0.02 0.02 0.02 0.02 0.02 0.02
0.00 0.00 0.00 0.00 0.00 0.00 0.00 0.00 0.00 0.00 0.00 0.00 0.00 0.00 0.00 0.00 0.00 0.00 0.00 0.00 0.00 0.00 0.00 0.00 0.00 0.00 0.00 0.00 0.00 0.00 0.00 0.01 0.01 0.01 0.01 0.02 0.01 0.02 0.02 0.02 0.01 0.01 0.01 0.02
0.00 0.00 0.00 0.00 0.00 0.00 0.00 0.00 0.00 0.00 0.00 0.00 0.00 0.00 0.00 0.00 0.00 0.00 0.00 0.00 0.00 0.00 0.00 0.01 0.01 0.00 0.00 0.00 0.00 0.00 0.01 0.01 0.01 0.01 0.01 0.01 0.01 0.01 0.02 0.02 0.02 0.01 0.02 0.01
0.00 0.00 0.00 0.00 0.00 0.00 0.00 0.00 0.00 0.00 0.00 0.00 0.00 0.00 0.00 0.00 0.00 0.00 0.00 0.00 0.00 0.00 0.00 0.01 0.00 0.00 0.00 0.00 0.00 0.00 0.00 0.01 0.01 0.01 0.01 0.01 0.01 0.01 0.02 0.02 0.02 0.01 0.02 0.02
0.00 0.00 0.00 0.00 0.00 0.00 0.00 0.00 0.00 0.00 0.00 0.00 0.00 0.00 0.00 0.00 0.00 0.00 0.00 0.00 0.00 0.00 0.00 0.00 0.00 0.00 0.00 0.00 0.00 0.00 0.01 0.01 0.01 0.01 0.01 0.01 0.01 0.01 0.01 0.01 0.01 0.01 0.02 0.03
0.00 0.00 0.00 0.00 0.00 0.00 0.00 0.00 0.00 0.00 0.00 0.00 0.00 0.00 0.00 0.00 0.00 0.00 0.00 0.00 0.00 0.00 0.00 0.00 0.00 0.00 0.00 0.00 0.00 0.00 0.01 0.01 0.01 0.01 0.01 0.01 0.01 0.00 0.00 0.00 0.00 0.01 0.02 0.03
0.00 0.00 0.00 0.00 0.00 0.00 0.00 0.00 0.00 0.00 0.00 0.00 0.00 0.00 0.00 0.00 0.00 0.00 0.00 0.00 0.00 0.00 0.00 0.00 0.00 0.00 0.01 0.01 0.01 0.00 0.01 0.01 0.01 0.01 0.01 0.01 0.01 0.01 0.01 0.01 0.00 0.01 0.01 0.03
0.00 0.00 0.00 0.00 0.00 0.00 0.00 0.00 0.00 0.00 0.00 0.00 0.00 0.00 0.00 0.00 0.00 0.00 0.00 0.00 0.00 0.00 0.00 0.00 0.00 0.00 0.00 0.01 0.01 0.01 0.02 0.02 0.02 0.02 0.02 0.02 0.02 0.01 0.01 0.01 0.01 0.01 0.02 0.01
0.00 0.00 0.00 0.00 0.00 0.00 0.00 0.00 0.00 0.00 0.00 0.00 0.00 0.00 0.00 0.00 0.00 0.00 0.00 0.00 0.00 0.00 0.00 0.00 0.00 0.00 0.01 0.01 0.01 0.01 0.02 0.02 0.02 0.01 0.01 0.02 0.02 0.02 0.01 0.01 0.01 0.01 0.01 0.01
0.00 0.00 0.00 0.00 0.00 0.00 0.00 0.00 0.00 0.00 0.00 0.00 0.00 0.00 0.00 0.00 0.00 0.00 0.00 0.00 0.00 0.00 0.00 0.00 0.00 0.00 0.00 0.01 0.02 0.02 0.02 0.02 0.01 0.01 0.01 0.01 0.02 0.02 0.02 0.01 0.01 0.01 0.01 0.01
0.00 0.00 0.00 0.00 0.00 0.00 0.00 0.00 0.00 0.00 0.00 0.00 0.00 0.00 0.00 0.00 0.00 0.00 0.00 0.00 0.00 0.00 0.00 0.00 0.00 0.00 0.00 0.01 0.01 0.01 0.01 0.01 0.01 0.01 0.01 0.01 0.01 0.01 0.01 0.01 0.01 0.02 0.01 0.01
0.00 0.00 0.00 0.00 0.00 0.00 0.00 0.00 0.00 0.00 0.00 0.00 0.00 0.00 0.00 0.00 0.00 0.00 0.00 0.00 0.00 0.00 0.00 0.00 0.01 0.00 0.00 0.01 0.01 0.01 0.01 0.01 0.01 0.01 0.01 0.01 0.01 0.01 0.02 0.02 0.02 0.01 0.01 0.01
0.00 0.00 0.00 0.00 0.00 0.00 0.00 0.00 0.00 0.01 0.00 0.00 0.00 0.00 0.00 0.00 0.00 0.00 0.00 0.00 0.00 0.00 0.00 0.00 0.01 0.01 0.01 0.01 0.01 0.01 0.01 0.01 0.01 0.01 0.01 0.01 0.01 0.02 0.02 0.03 0.03 0.02 0.02 0.02
0.00 0.00 0.00 0.00 0.00 0.00 0.00 0.01 0.01 0.00 0.00 0.01 0.01 0.01 0.00 0.00 0.00 0.00 0.00 0.00 0.01 0.01 0.01 0.01 0.01 0.01 0.01 0.02 0.02 0.02 0.02 0.02 0.02 0.02 0.01 0.01 0.01 0.02 0.03 0.05 0.05 0.06 0.05 0.04
0.00 0.00 0.00 0.00 0.00 0.00 0.01 0.01 0.01 0.01 0.01 0.01 0.01 0.01 0.01 0.00 0.00 0.00 0.00 0.00 0.01 0.01 0.01 0.01 0.01 0.01 0.01 0.03 0.03 0.03 0.03 0.03 0.02 0.02 0.01 0.01 0.01 0.01 0.03 0.04 0.04 0.05 0.04 0.04
0.00 0.01 0.01 0.01 0.01 0.01 0.01 0.01 0.01 0.01 0.00 0.00 0.02 0.02 0.01 0.01 0.01 0.01 0.01 0.01 0.01 0.01 0.01 0.01 0.01 0.01 0.01 0.02 0.03 0.03 0.03 0.03 0.02 0.01 0.01 0.01 0.01 0.02 0.02 0.02 0.02 0.02 0.02 0.02
0.00 0.00 0.01 0.01 0.01 0.01 0.01 0.01 0.01 0.01 0.01 0.02 0.04 0.06 0.05 0.03 0.02 0.02 0.02 0.01 0.01 0.01 0.01 0.01 0.02 0.01 0.01 0.02 0.01 0.01 0.01 0.01 0.01 0.02 0.02 0.02 0.02 0.02 0.02 0.02 0.02 0.01 0.01 0.01
0.00 0.00 0.00 0.01 0.00 0.01 0.01 0.02 0.02 0.02 0.02 0.03 0.05 0.06 0.08 0.07 0.04 0.03 0.02 0.01 0.01 0.01 0.01 0.01 0.02 0.02 0.02 0.01 0.01 0.00 0.01 0.01 0.01 0.01 0.02 0.02 0.02 0.02 0.02 0.01 0.01 0.01 0.01 0.01
0.01 0.01 0.01 0.01 0.01 0.01 0.01 0.02 0.03 0.06 0.06 0.06 0.05 0.06 0.11 0.09 0.04 0.02 0.02 0.01 0.01 0.01 0.02 0.02 0.02 0.03 0.02 0.02 0.01 0.01 0.01 0.01 0.01 0.01 0.02 0.02 0.03 0.03 0.02 0.02 0.02 0.02 0.01 0.01
0.00 0.01 0.01 0.01 0.01 0.02 0.02 0.02 0.05 0.09 0.07 0.06 0.06 0.08 0.10 0.06 0.05 0.03 0.03 0.03 0.02 0.02 0.02 0.02 0.02 0.02 0.02 0.02 0.01 0.01 0.01 0.01 0.01 0.01 0.02 0.02 0.02 0.02 0.02 0.02 0.02 0.02 0.02 0.01
MSLP
1004.60 1005.09 1005.53 1005.93 1006.29 1006.65 1007.02 1007.41 1007.81 1008.21 1008.57 1008.88 1009.11 1009.29 1009.42 1009.55 1009.71 1009.92 1010.21 1010.57 1010.98 1011.40 1011.79 1012.12 1012.38 1012.56 1012.67 1012.74 1012.80 1012.86 1012.95 1013.07 1013.20 1013.34 1013.48 1013.60 1013.72 1013.83 1013.95 1014.08 1014.24 1014.43 1014.63 1014.85
1005.16 1005.56 1005.89 1006.18 1006.46 1006.75 1007.09 1007.48 1007.88 1008.27 1008.62 1008.88 1009.05 1009.13 1009.16 1009.17 1009.23 1009.37 1009.62 1009.99 1010.44 1010.94 1011.43 1011.88 1012.23 1012.49 1012.66 1012.76 1012.83 1012.89 1012.97 1013.09 1013.23 1013.39 1013.55 1013.70 1013.83 1013.95 1014.05 1014.16 1014.28 1014.43 1014.60 1014.80
1005.57 1005.89 1006.14 1006.35 1006.57 1006.84 1007.17 1007.56 1007.99 1008.39 1008.72 1008.94 1009.02 1008.99 1008.87 1008.74 1008.65 1008.68 1008.86 1009.20 1009.67 1010.24 1010.83 1011.39 1011.87 1012.24 1012.51 1012.69 1012.81 1012.91 1013.02 1013.17 1013.33 1013.52 1013.71 1013.88 1014.03 1014.14 1014.23 1014.30 1014.38 1014.48 1014.61 1014.78
1005.79 1006.04 1006.22 1006.39 1006.58 1006.85 1007.20 1007.63 1008.09 1008.52 1008.85 1009.02 1009.03 1008.87 1008.60 1008.29 1008.04 1007.92 1007.99 1008.26 1008.72 1009.32 1009.99 1010.66 1011.26 1011.77 1012.15 1012.44 1012.66 1012.84 1013.02 1013.21 1013.43 1013.67 1013.90 1014.10 1014.26 1014.37 1014.43 1014.47 1014.50 1014.55 1014.64 1014.78
1005.82 1006.00 1006.13 1006.26 1006.46 1006.74 1007.14 1007.63 1008.14 1008.60 1008.94 1009.09 1009.02 1008.76 1008.34 1007.87 1007.45 1007.17 1007.10 1007.27 1007.68 1008.27 1008.99 1009.74 1010.45 1011.07 1011.58 1011.99 1012.32 1012.60 1012.86 1013.14 1013.43 1013.72 1014.00 1014.24 1014.42 1014.54 1014.59 1014.60 1014.59 1014.60 1014.65 1014.76
1005.69 1005.81 1005.89 1006.00 1006.19 1006.50 1006.94 1007.48 1008.05 1008.56 1008.92 1009.07 1008.97 1008.63 1008.12 1007.51 1006.94 1006.51 1006.30 1006.36 1006.68 1007.24 1007.95 1008.73 1009.51 1010.21 1010.83 1011.34 1011.77 1012.15 1012.51 1012.87 1013.24 1013.60 1013.94 1014.23 1014.44 1014.57 1014.63 1014.62 1014.59 1014.57 1014.59 1014.67
1005.50 1005.54 1005.57 1005.64 1005.82 1006.13 1006.59 1007.17 1007.78 1008.33 1008.74 1008.92 1008.82 1008.47 1007.91 1007.24 1006.58 1006.03 1005.71 1005.65 1005.88 1006.36 1007.02 1007.78 1008.56 1009.31 1009.97 1010.55 1011.06 1011.52 1011.96 1012.40 1012.84 1013.27 1013.67 1014.01 1014.26 1014.42 1014.49 1014.49 1014.45 1014.41 1014.41 1014.47
1005.33 1005.29 1005.25 1005.26 1005.39 1005.67 1006.11 1006.68 1007.31 1007.91 1008.36 1008.60 1008.57 1008.27 1007.74 1007.08 1006.40 1005.82 1005.42 1005.28 1005.40 1005.78 1006.34 1007.04 1007.77 1008.49 1009.15 1009.75 1010.28 1010.78 1011.27 1011.76 1012.26 1012.75 1013.20 1013.59 1013.89 1014.08 1014.17 1014.19 1014.15 1014.11 1014.10 1014.14
1005.25 1005.13 1004.99 1004.92 1004.96 1005.17 1005.55 1006.08 1006.70 1007.31 1007.82 1008.14 1008.22 1008.04 1007.64 1007.08 1006.47 1005.92 1005.51 1005.31 1005.35 1005.61 1006.06 1006.63 1007.26 1007.89 1008.49 1009.05 1009.57 1010.07 1010.58 1011.09 1011.62 1012.14 1012.62 1013.05 1013.39 1013.62 1013.74 1013.77 1013.75 1013.71 1013.70 1013.73
1005.29 1005.09 1004.86 1004.68 1004.62 1004.71 1004.98 1005.44 1006.01 1006.63 1007.19 1007.62 1007.85 1007.85 1007.64 1007.26 1006.80 1006.35 1005.99 1005.78 1005.75 1005.91 1006.22 1006.65 1007.13 1007.63 1008.13 1008.60 1009.07 1009.53 1010.01 1010.52 1011.05 1011.58 1012.08 1012.53 1012.88 1013.14 1013.28 1013.33 1013.32 1013.29 1013.27 1013.28
1005.45 1005.18 1004.87 1004.59 1004.40 1004.36 1004.51 1004.85 1005.36 1005.96 1006.57 1007.11 1007.51 1007.73 1007.76 1007.63 1007.38 1007.10 1006.84 1006.66 1006.60 1006.66 1006.84 1007.11 1007.43 1007.78 1008.13 1008.50 1008.88 1009.28 1009.72 1010.20 1010.71 1011.23 1011.72 1012.17 1012.52 1012.78 1012.93 1012.99 1012.98 1012.94 1012.90 1012.89
1005.67 1005.37 1005.00 1004.64 1004.33 1004.17 1004.19 1004.42 1004.85 1005.42 1006.07 1006.72 1007.29 1007.74 1008.03 1008.16 1008.16 1008.07 1007.94 1007.83 1007.76 1007.75 1007.81 1007.92 1008.09 1008.28 1008.51 1008.76 1009.05 1009.39 1009.78 1010.22 1010.70 1011.19 1011.66 1012.07 1012.41 1012.65 1012.79 1012.83 1012.80 1012.74 1012.68 1012.63
1005.90 1005.60 1005.22 1004.80 1004.42 1004.16 1004.07 1004.20 1004.54 1005.08 1005.75 1006.49 1007.22 1007.88 1008.42 1008.80 1009.05 1009.16 1009.18 1009.15 1009.08 1009.03 1008.99 1008.98 1009.00 1009.07 1009.18 1009.34 1009.56 1009.84 1010.19 1010.59 1011.04 1011.49 1011.92 1012.30 1012.60 1012.80 1012.90 1012.91 1012.85 1012.76 1012.65 1012.56
1006.09 1005.84 1005.47 1005.05 1004.64 1004.32 1004.15 1004.20 1004.48 1004.98 1005.66 1006.46 1007.31 1008.14 1008.88 1009.49 1009.95 1010.25 1010.40 1010.45 1010.41 1010.32 1010.22 1010.11 1010.04 1010.01 1010.04 1010.13 1010.30 1010.55 1010.88 1011.25 1011.67 1012.08 1012.47 1012.80 1013.05 1013.19 1013.24 1013.21 1013.11 1012.97 1012.82 1012.67
1006.23 1006.04 1005.74 1005.36 1004.96 1004.62 1004.42 1004.41 1004.64 1005.10 1005.77 1006.60 1007.53 1008.47 1009.36 1010.14 1010.76 1011.20 1011.48 1011.60 1011.59 1011.50 1011.35 1011.20 1011.06 1010.97 1010.96 1011.02 1011.17 1011.41 1011.73 1012.09 1012.48 1012.86 1013.20 1013.47 1013.66 1013.75 1013.74 1013.65 1013.50 1013.32 1013.12 1012.92
1006.33 1006.23 1006.00 1005.69 1005.35 1005.04 1004.83 1004.80 1004.99 1005.41 1006.05 1006.88 1007.83 1008.82 1009.80 1010.67 1011.40 1011.96 1012.32 1012.50 1012.53 1012.45 1012.30 1012.12 1011.97 1011.86 1011.83 1011.90 1012.05 1012.30 1012.61 1012.97 1013.33 1013.68 1013.97 1014.19 1014.31 1014.34 1014.28 1014.13 1013.94 1013.71 1013.47 1013.24
1006.42 1006.40 1006.27 1006.05 1005.78 1005.53 1005.35 1005.31 1005.47 1005.84 1006.44 1007.22 1008.15 1009.14 1010.14 1011.06 1011.85 1012.46 1012.89 1013.13 1013.20 1013.15 1013.02 1012.85 1012.71 1012.61 1012.60 1012.68 1012.85 1013.11 1013.42 1013.76 1014.10 1014.41 1014.65 1014.81 1014.87 1014.84 1014.72 1014.54 1014.30 1014.05 1013.79 1013.53
1006.54 1006.59 1006.55 1006.43 1006.24 1006.05 1005.91 1005.88 1006.01 1006.34 1006.87 1007.59 1008.46 1009.41 1010.37 1011.29 1012.09 1012.74 1013.21 1013.49 1013.62 1013.61 1013.52 1013.40 1013.29 1013.22 1013.24 1013.34 1013.52 1013.78 1014.09 1014.41 1014.71 1014.96 1015.15 1015.24 1015.25 1015.16 1015.00 1014.78 1014.53 1014.26 1014.00 1013.75
1006.71 1006.82 1006.85 1006.81 1006.71 1006.58 1006.49 1006.47 1006.59 1006.87 1007.33 1007.96 1008.74 1009.61 1010.52 1011.40 1012.19 1012.85 1013.35 1013.68 1013.86 1013.92 1013.89 1013.82 1013.75 1013.73 1013.77 1013.89 1014.07 1014.32 1014.60 1014.88 1015.12 1015.32 1015.43 1015.46 1015.41 1015.27 1015.07 1014.83 1014.58 1014.32 1014.08 1013.86
1006.93 1007.07 1007.17 1007.19 1007.17 1007.11 1007.06 1007.06 1007.16 1007.39 1007.78 1008.33 1009.01 1009.80 1010.63 1011.45 1012.22 1012.88 1013.40 1013.78 1014.02 1014.15 1014.18 1014.18 1014.17 1014.18 1014.25 1014.37 1014.54 1014.76 1014.99 1015.21 1015.39 1015.51 1015.55 1015.51 1015.40 1015.21 1014.99 1014.74 1014.49 1014.25 1014.04 1013.87
1007.15 1007.33 1007.47 1007.56 1007.59 1007.60 1007.59 1007.62 1007.72 1007.92 1008.25 1008.72 1009.31 1010.00 1010.75 1011.52 1012.25 1012.90 1013.45 1013.87 1014.17 1014.37 1014.48 1014.53 1014.58 1014.63 1014.71 1014.82 1014.97 1015.14 1015.32 1015.46 1015.57 1015.61 1015.57 1015.46 1015.29 1015.07 1014.81 1014.56 1014.32 1014.11 1013.94 1013.82
1007.35 1007.54 1007.72 1007.87 1007.97 1008.04 1008.09 1008.16 1008.27 1008.45 1008.74 1009.14 1009.66 1010.27 1010.94 1011.65 1012.34 1012.98 1013.54 1014.00 1014.36 1014.61 1014.79 1014.91 1015.00 1015.08 1015.17 1015.27 1015.39 1015.51 1015.62 1015.70 1015.72 1015.68 1015.57 1015.40 1015.17 1014.90 1014.63 1014.36 1014.13 1013.95 1013.83 1013.75
1007.46 1007.68 1007.91 1008.11 1008.29 1008.43 1008.55 1008.67 1008.81 1009.00 1009.27 1009.63 1010.08 1010.62 1011.23 1011.88 1012.53 1013.15 1013.71 1014.19 1014.59 1014.89 1015.12 1015.29 1015.42 1015.52 1015.62 1015.71 1015.80 1015.88 1015.93 1015.94 1015.90 1015.79 1015.61 1015.38 1015.10 1014.80 1014.49 1014.22 1013.99 1013.82 1013.73 1013.69
1007.47 1007.73 1008.00 1008.27 1008.53 1008.75 1008.95 1009.14 1009.34 1009.56 1009.83 1010.17 1010.59 1011.07 1011.62 1012.21 1012.81 1013.40 1013.94 1014.43 1014.84 1015.18 1015.44 1015.65 1015.81 1015.93 1016.04 1016.12 1016.19 1016.23 1016.24 1016.20 1016.10 1015.94 1015.71 1015.43 1015.11 1014.77 1014.44 1014.14 1013.91 1013.75 1013.66 1013.65
1007.38 1007.68 1008.01 1008.35 1008.69 1009.01 1009.31 1009.58 1009.85 1010.12 1010.42 1010.76 1011.15 1011.59 1012.08 1012.61 1013.16 1013.70 1014.21 1014.68 1015.10 1015.44 1015.73 1015.95 1016.13 1016.27 1016.38 1016.47 1016.52 1016.55 1016.53 1016.45 1016.32 1016.12 1015.85 1015.53 1015.17 1014.81 1014.45 1014.13 1013.88 1013.70 1013.62 1013.61
1007.22 1007.56 1007.95 1008.37 1008.79 1009.21 1009.60 1009.98 1010.32 1010.66 1011.00 1011.35 1011.73 1012.14 1012.58 1013.05 1013.54 1014.02 1014.49 1014.93 1015.32 1015.66 1015.94 1016.18 1016.37 1016.52 1016.64 1016.73 1016.78 1016.80 1016.76 1016.67 1016.51 1016.29 1016.00 1015.65 1015.27 1014.87 1014.49 1014.15 1013.87 1013.68 1013.57 1013.55
Thickness
5833 5828 5822 5830 5836 5835 5831 5826 5822 5827 5836 5828 5823 5823 5825 5825 5821 5816 5813 5810 5807 5806 5808 5806 5803 5801 5797 5793 5789 5786 5783 5782 5780 5778 5776 5774 5772 5774 5774 5773 5770 5769 5768 5767
5820 5820 5835 5841 5838 5832 5828 5822 5823 5828 5834 5828 5825 5825 5832 5828 5824 5823 5819 5815 5813 5810 5808 5805 5804 5802 5799 5794 5791 5788 5784 5783 5781 5780 5777 5775 5774 5774 5774 5773 5770 5769 5768 5767
5815 5830 5839 5831 5826 5823 5824 5823 5824 5823 5827 5830 5824 5820 5826 5830 5830 5828 5826 5824 5821 5816 5812 5808 5805 5804 5801 5796 5793 5791 5787 5785 5783 5781 5780 5778 5775 5774 5773 5771 5770 5769 5768 5767
5820 5832 5828 5823 5823 5826 5819 5834 5831 5825 5818 5821 5820 5810 5824 5829 5826 5826 5826 5826 5825 5822 5819 5814 5809 5806 5803 5800 5798 5793 5790 5786 5784 5782 5781 5777 5773 5771 5771 5771 5770 5769 5767 5766
5815 5824 5820 5817 5827 5831 5829 5837 5831 5826 5820 5818 5821 5813 5825 5831 5823 5827 5830 5831 5831 5828 5824 5819 5815 5811 5808 5805 5802 5797 5792 5788 5785 5783 5781 5777 5776 5775 5775 5773 5769 5768 5767 5766
5823 5831 5830 5830 5836 5836 5832 5827 5823 5824 5822 5802 5816 5811 5816 5831 5830 5834 5836 5835 5834 5833 5828 5824 5821 5816 5811 5809 5805 5800 5794 5789 5787 5784 5782 5778 5775 5773 5772 5770 5769 5768 5768 5767
5804 5815 5828 5833 5822 5825 5825 5811 5797 5794 5796 5803 5820 5812 5819 5838 5842 5842 5840 5838 5838 5836 5831 5825 5820 5816 5812 5809 5806 5802 5796 5790 5788 5785 5783 5780 5777 5774 5771 5770 5769 5768 5768 5766
5791 5795 5816 5824 5822 5817 5819 5819 5797 5786 5792 5809 5811 5810 5828 5843 5845 5846 5845 5844 5840 5837 5834 5828 5824 5820 5815 5812 5808 5803 5797 5792 5790 5786 5783 5781 5778 5777 5776 5772 5771 5769 5768 5766
5798 5798 5821 5825 5830 5826 5814 5816 5830 5815 5808 5802 5812 5818 5830 5840 5839 5839 5840 5839 5836 5835 5834 5830 5826 5822 5818 5813 5809 5805 5799 5794 5791 5788 5785 5781 5778 5777 5775 5773 5771 5770 5766 5765
5807 5794 5808 5816 5820 5821 5825 5824 5815 5806 5787 5785 5801 5807 5816 5823 5829 5833 5834 5833 5834 5834 5832 5830 5827 5824 5820 5816 5811 5807 5801 5795 5792 5789 5786 5783 5779 5776 5774 5772 5769 5767 5765 5762
5807 5792 5796 5802 5800 5805 5806 5808 5809 5808 5807 5791 5788 5807 5836 5830 5832 5832 5833 5833 5833 5832 5831 5828 5826 5824 5820 5816 5811 5805 5800 5795 5791 5788 5784 5781 5778 5776 5773 5770 5767 5765 5763 5760
5799 5796 5789 5797 5813 5819 5815 5812 5807 5793 5790 5798 5799 5808 5836 5836 5836 5835 5833 5831 5831 5830 5830 5828 5825 5821 5817 5813 5809 5804 5799 5794 5790 5787 5782 5779 5777 5774 5771 5768 5766 5763 5760 5758
5791 5785 5771 5777 5790 5800 5802 5807 5810 5810 5802 5796 5793 5804 5830 5831 5830 5830 5828 5827 5826 5825 5825 5824 5821 5817 5814 5811 5807 5803 5798 5794 5790 5785 5780 5776 5774 5771 5768 5766 5763 5761 5758 5755
5789 5783 5779 5776 5788 5798 5792 5797 5802 5801 5797 5794 5798 5806 5814 5819 5820 5822 5822 5821 5821 5819 5818 5817 5814 5811 5808 5805 5802 5799 5795 5792 5788 5783 5778 5773 5771 5768 5765 5763 5760 5757 5754 5752
5782 5774 5780 5789 5797 5798 5794 5794 5795 5794 5799 5797 5801 5804 5810 5814 5816 5817 5817 5816 5814 5813 5812 5811 5809 5806 5803 5800 5797 5794 5791 5788 5784 5779 5774 5771 5768 5765 5761 5758 5755 5753 5750 5749
5773 5768 5771 5772 5784 5787 5784 5789 5791 5792 5796 5797 5798 5798 5813 5814 5814 5811 5810 5810 5808 5808 5807 5807 5804 5801 5798 5796 5792 5790 5786 5783 5779 5774 5771 5768 5764 5760 5756 5753 5751 5748 5746 5744
5762 5759 5757 5760 5773 5772 5766 5782 5785 5786 5792 5794 5789 5797 5805 5802 5801 5802 5805 5805 5804 5805 5804 5801 5799 5797 5794 5792 5789 5785 5783 5780 5775 5770 5766 5763 5760 5755 5753 5751 5747 5743 5740 5738
5750 5750 5754 5756 5753 5739 5773 5792 5790 5784 5786 5792 5793 5795 5796 5794 5795 5799 5802 5801 5800 5801 5799 5797 5796 5793 5791 5790 5787 5783 5779 5775 5770 5765 5761 5758 5754 5751 5748 5745 5742 5739 5736 5733
5752 5744 5746 5748 5744 5749 5764 5775 5777 5773 5772 5784 5783 5783 5785 5789 5789 5791 5796 5797 5795 5795 5794 5793 5792 5790 5787 5784 5781 5777 5773 5769 5765 5760 5756 5753 5750 5747 5743 5740 5737 5734 5731 5728
5741 5741 5740 5739 5735 5734 5757 5771 5777 5770 5758 5777 5776 5773 5775 5777 5774 5780 5787 5789 5789 5788 5787 5786 5786 5784 5779 5776 5774 5769 5765 5761 5758 5755 5752 5749 5746 5742 5739 5735 5732 5729 5726 5724
5722 5723 5728 5731 5730 5741 5756 5763 5762 5743 5751 5766 5768 5767 5767 5768 5772 5777 5779 5779 5779 5779 5779 5779 5777 5774 5771 5769 5766 5761 5757 5754 5752 5750 5746 5742 5739 5736 5733 5730 5726 5723 5721 5718
5714 5717 5718 5724 5722 5728 5747 5749 5745 5745 5755 5759 5760 5761 5760 5762 5764 5767 5769 5769 5771 5770 5770 5769 5767 5764 5762 5761 5757 5753 5750 5748 5746 5743 5739 5735 5732 5731 5728 5723 5719 5717 5714 5711
5708 5713 5718 5719 5721 5728 5737 5739 5742 5746 5745 5749 5752 5754 5754 5754 5755 5758 5760 5761 5761 5761 5760 5760 5758 5755 5753 5751 5749 5745 5743 5740 5737 5734 5731 5728 5725 5722 5720 5715 5712 5710 5707 5706
5699 5705 5706 5706 5713 5720 5726 5731 5734 5737 5739 5742 5744 5745 5746 5746 5749 5750 5751 5751 5751 5751 5751 5751 5750 5747 5744 5743 5741 5738 5735 5732 5729 5725 5722 5720 5717 5714 5712 5709 5707 5705 5703 5701
5689 5692 5695 5696 5703 5710 5714 5719 5723 5727 5730 5732 5734 5737 5738 5739 5740 5741 5741 5741 5741 5741 5742 5742 5740 5737 5735 5734 5732 5730 5727 5724 5720 5716 5714 5712 5710 5708 5704 5702 5700 5698 5697 5695
5684 5684 5686 5690 5697 5699 5702 5710 5715 5716 5717 5720 5722 5725 5728 5730 5731 5732 5731 5731 5732 5732 5732 5731 5730 5729 5727 5725 5723 5721 5718 5715 5711 5708 5705 5704 5703 5700 5698 5696 5693 5689 5687 5684